Location: Ferchesar
(52.6477°N, 12.4298°E)
Time: 04:44:41
(UTC+01:00)

Explorer 7 - Pass Details

Date: 10 December 2021
Orbit: 483 x 674 km, 50.3° (Epoch: 21 January)

Event Time Altitude Azimuth Distance (km) Brightness Sun altitude
Rises 06:37:58 0° 267° (W) 2,824 - -13.0°
Reaches altitude 10° 06:40:20 10° 264° (W) 1,889 - -12.7°
Exits shadow 06:41:11 15° 262° (W) 1,555 8.6 -12.5°
Maximum altitude 06:44:35 63° 184° (S) 616 7.1 -12.1°
Drops below altitude 10° 06:48:34 10° 103° (ESE) 1,773 10.9 -11.5°
Sets 06:50:43 0° 100° (E) 2,633 12.1 -11.2°
